Location: New Mesquite
(33.1168°N, 96.4336°W)
Time: 03:54:13
(UTC+00:00)

Okean 1 - Pass Details

Date: 03 July 2022
Orbit: 532 x 553 km, 82.5° (Epoch: 13 August)

Event Time Altitude Azimuth Distance (km) Brightness Sun altitude
Rises 10:34:46 0° 336° (NNW) 2,685 7.0 -9.1°
Reaches altitude 10° 10:37:19 10° 320° (NW) 1,787 5.9 -8.7°
Maximum altitude 10:40:16 21° 271° (W) 1,242 4.7 -8.2°
Drops below altitude 10° 10:43:12 10° 222° (SW) 1,775 5.3 -7.7°
Enters shadow 10:43:34 - 218° (SW) 1,895 5.4 -7.6°
